{"data":{"norad_id":60473,"epoch":"2026-09-22T11:14:47.622336Z","epoch_age_seconds":116215,"freshness":"FRESH","line1":"1 60473U 24149F   26265.46860674  .00011555  00000+0  27077-3 0  9994","line2":"2 60473  97.3727 349.7480 0000385 178.4376 181.6873 15.42253227117246","mean_motion":15.42253227,"eccentricity":3.85e-5,"inclination_deg":97.3727,"raan_deg":349.748,"arg_perigee_deg":178.4376,"mean_anomaly_deg":181.6873,"bstar":0.00027077,"rev_number":11724,"period_min":93.369880820486,"perigee_km":439.19841964785,"apogee_km":439.72337468593,"semimajor_km":6817.5978971669,"source":"CELESTRAK","updated_at":"2026-09-23T09:00:20.652665Z"}}